Zurück zum Katalog

FENGYUN 1C DEB

AktivSSO
NORAD 31182·DEBRIS·🇨🇳 China

Gestartet May 10, 1999 von Taiyuan Satellite Launch Center

Loading…

Nächste Überflüge (nächste 24 Stunden)

TLE

AktuellSource: Space-Track

Epoche: Sep 14, 2026, 05:16 UTC

1 31182U 99025BJL 26257.21963145  .00000356  00000-0  20603-3 0  9991
2 31182  98.7045 243.9302 0024137  71.8696 353.1824 14.14888105999763

Verfolge FENGYUN 1C DEB in Echtzeit mit AllMySat

Download on the App Store